Location: Columbia
(38.9520°N, 92.3340°W)
Time: 12:48:38
(UTC-05:00)

SJ-11-01 - Visible Passes

Search period start: 25 July 2016 00:00
Search period end: 04 August 2016 00:00
Orbit: 686 x 701 km, 98.2° (Epoch: 25 July)

Date Brightness Start Highest point End Pass type
(mag) Time Alt. Az. Time Alt. Az. Time Alt. Az.
25 Jul 4.4 21:05:19 10° SSE 21:09:59 61° ENE 21:14:41 10° N visible
25 Jul 7.0 22:45:51 10° WSW 22:47:55 13° W 22:50:00 10° WNW visible
26 Jul 5.1 21:45:23 10° S 21:49:59 50° W 21:54:37 10° NNW visible
27 Jul 4.9 20:48:07 10° SE 20:52:32 40° ENE 20:56:58 10° N visible
27 Jul 6.6 22:26:49 10° SW 22:30:13 19° W 22:33:39 10° NW visible
28 Jul 4.4 21:27:41 10° S 21:32:26 78° WSW 21:37:12 10° NNW visible
29 Jul 6.0 22:08:26 10° SSW 22:12:33 29° W 22:16:42 10° NW visible
30 Jul 4.3 21:10:12 10° SSE 21:14:55 69° ENE 21:19:38 10° N visible
30 Jul 7.1 22:51:34 10° WSW 22:52:54 11° W 22:54:15 10° WNW visible
31 Jul 5.3 21:50:25 10° S 21:54:56 44° W 21:59:29 10° NNW visible
01 Aug 4.7 20:52:56 10° SE 20:57:26 45° ENE 21:01:57 10° N visible
01 Aug 6.7 22:32:04 10° SW 22:35:11 17° W 22:38:19 10° NW visible
02 Aug 4.6 21:32:39 10° S 21:37:21 69° WSW 21:42:06 10° NNW visible
03 Aug 6.2 22:13:34 10° SSW 22:17:31 26° W 22:21:29 10° NW visible
